timestamp,wind_dir_avg,wind_spd_avg,wind_spd_max_dir,wind_spd_gust,battery_voltage,lat,long
2024-02-12 00:04:00+00:00,315.0,0.01,233.0,0.0,12.17,47.59359,-54.27349
2024-02-12 00:14:00+00:00,315.0,0.01,233.0,0.0,12.17,47.59359,-54.27349
2024-02-12 00:24:00+00:00,315.0,0.01,233.0,0.0,12.17,47.59359,-54.27349
2024-02-12 00:34:00+00:00,315.0,0.01,233.0,0.0,12.17,47.59359,-54.27349
2024-02-12 00:44:00+00:00,315.0,0.01,233.0,0.0,12.17,47.59359,-54.27349
2024-02-12 00:54:00+00:00,315.0,0.01,240.0,0.0,12.17,47.59359,-54.27349
2024-02-12 01:04:00+00:00,315.0,0.01,236.0,0.0,12.17,47.59359,-54.27349
2024-02-12 01:14:00+00:00,315.0,0.01,236.0,0.0,12.09,47.59359,-54.27349
2024-02-12 01:24:00+00:00,315.0,0.01,236.0,0.0,12.09,47.59359,-54.27349
2024-02-12 01:34:00+00:00,315.0,0.01,238.0,0.0,12.09,47.59359,-54.27349
2024-02-12 01:44:00+00:00,315.0,0.01,238.0,0.0,12.09,47.59359,-54.27349
2024-02-12 01:54:00+00:00,315.0,0.01,238.0,0.0,12.09,47.59359,-54.27349
2024-02-12 02:04:00+00:00,315.0,0.01,238.0,0.0,12.09,47.59359,-54.27349
2024-02-12 02:14:00+00:00,315.0,0.01,238.0,0.0,12.09,47.59359,-54.27349
2024-02-12 02:24:00+00:00,315.0,0.01,238.0,0.0,12.09,47.59359,-54.27349
2024-02-12 02:34:00+00:00,315.0,0.01,238.0,0.0,12.09,47.59359,-54.27349
2024-02-12 02:44:00+00:00,315.0,0.01,238.0,0.0,12.09,47.59359,-54.27349
2024-02-12 02:54:00+00:00,315.0,0.01,241.0,0.0,12.09,47.59359,-54.27349
2024-02-12 03:04:00+00:00,315.0,0.01,241.0,0.0,12.09,47.59359,-54.27349
2024-02-12 03:14:00+00:00,315.0,0.01,241.0,0.0,12.01,47.59359,-54.27349
2024-02-12 03:24:00+00:00,315.0,0.01,236.0,0.0,12.01,47.59359,-54.27349
2024-02-12 03:34:00+00:00,315.0,0.01,236.0,0.0,12.01,47.59359,-54.27349
2024-02-12 03:44:00+00:00,315.0,0.01,236.0,0.0,12.01,47.59359,-54.27349
2024-02-12 03:54:00+00:00,315.0,0.01,237.0,0.0,12.01,47.59359,-54.27349
2024-02-12 04:04:00+00:00,315.0,0.01,237.0,0.0,12.01,47.59359,-54.27349
2024-02-12 04:14:00+00:00,315.0,0.01,237.0,0.0,12.01,47.59359,-54.27349
2024-02-12 04:24:00+00:00,315.0,0.01,237.0,0.0,12.01,47.59359,-54.27349
2024-02-12 04:34:00+00:00,315.0,0.01,237.0,0.0,12.01,47.59359,-54.27349
2024-02-12 04:44:00+00:00,315.0,0.01,237.0,0.0,12.01,47.59359,-54.27349
2024-02-12 04:54:00+00:00,315.0,0.01,237.0,0.0,12.01,47.59359,-54.27349
2024-02-12 05:04:00+00:00,315.0,0.01,237.0,0.0,12.01,47.59359,-54.27349
2024-02-12 05:14:01+00:00,315.0,0.01,237.0,0.0,11.93,47.59359,-54.27349
2024-02-12 05:24:01+00:00,315.0,0.01,237.0,0.0,11.93,47.59359,-54.27349
2024-02-12 05:34:01+00:00,315.0,0.01,237.0,0.0,11.93,47.59359,-54.27349
2024-02-12 05:44:01+00:00,234.0,11.56,235.0,11.57,11.93,47.59359,-54.27349
2024-02-12 05:54:01+00:00,315.0,0.01,224.0,0.0,11.93,47.59359,-54.27349
2024-02-12 06:04:01+00:00,315.0,0.01,224.0,0.0,11.93,47.59359,-54.27349
2024-02-12 13:14:00+00:00,315.0,0.01,181.0,0.0,12.01,47.59359,-54.27349
2024-02-12 13:24:00+00:00,315.0,0.01,133.0,0.0,12.01,47.59359,-54.27349
2024-02-12 13:34:00+00:00,142.0,2.44,140.0,3.17,12.01,47.59359,-54.27349
2024-02-12 13:44:00+00:00,315.0,0.01,144.0,0.0,12.01,47.59359,-54.27349
2024-02-12 13:54:00+00:00,315.0,0.01,144.0,0.0,12.01,47.59359,-54.27349
2024-02-12 14:04:00+00:00,315.0,0.01,131.0,0.0,12.01,47.59359,-54.27349
2024-02-12 14:14:00+00:00,315.0,0.01,131.0,0.0,12.65,47.59359,-54.27349
2024-02-12 14:24:00+00:00,315.0,0.01,131.0,0.0,12.65,47.59359,-54.27349
2024-02-12 14:34:00+00:00,315.0,0.01,131.0,0.0,12.65,47.59359,-54.27349
2024-02-12 14:44:00+00:00,315.0,0.01,230.0,0.0,12.65,47.59359,-54.27349
2024-02-12 14:54:00+00:00,145.0,3.06,152.0,3.28,12.65,47.59359,-54.27349
2024-02-12 15:04:00+00:00,142.0,2.88,133.0,3.31,12.65,47.59359,-54.27349
2024-02-12 15:14:00+00:00,142.0,2.81,139.0,3.24,12.97,47.59359,-54.27349
2024-02-12 15:24:00+00:00,132.0,2.64,129.0,2.9,12.97,47.59359,-54.27349
2024-02-12 15:34:00+00:00,193.0,2.57,203.0,2.86,12.97,47.59359,-54.27349
2024-02-12 15:44:00+00:00,188.0,2.91,137.0,3.89,12.97,47.59359,-54.27349
2024-02-12 15:54:00+00:00,193.0,3.26,192.0,3.48,12.97,47.59359,-54.27349
2024-02-12 16:04:00+00:00,165.0,2.5,133.0,3.32,12.97,47.59359,-54.27349
2024-02-12 16:14:00+00:00,157.0,3.5,157.0,3.51,13.29,47.59359,-54.27349
2024-02-12 16:24:00+00:00,188.0,3.32,187.0,3.58,13.29,47.59359,-54.27349
2024-02-12 16:34:00+00:00,189.0,2.97,194.0,3.6,13.29,47.59359,-54.27349
2024-02-12 16:44:00+00:00,189.0,3.69,192.0,4.11,13.29,47.59359,-54.27349
2024-02-12 16:54:00+00:00,196.0,2.41,183.0,2.88,13.29,47.59359,-54.27349
2024-02-12 17:04:00+00:00,270.0,2.13,276.0,3.31,13.29,47.59359,-54.27349
2024-02-12 17:14:00+00:00,271.0,5.15,271.0,9.18,13.21,47.59359,-54.27349
2024-02-12 17:24:00+00:00,262.0,4.52,263.0,9.68,13.21,47.59359,-54.27349
2024-02-12 17:34:00+00:00,252.0,4.32,260.0,7.21,13.21,47.59359,-54.27349
2024-02-12 17:44:00+00:00,245.0,2.51,245.0,3.81,13.21,47.59359,-54.27349
2024-02-12 17:54:00+00:00,248.0,2.95,254.0,3.55,13.21,47.59359,-54.27349
2024-02-12 18:04:00+00:00,245.0,2.7,249.0,3.45,13.21,47.59359,-54.27349
2024-02-12 18:14:01+00:00,155.0,1.48,122.0,2.72,13.13,47.59359,-54.27349
2024-02-12 18:24:01+00:00,249.0,3.0,254.0,4.01,13.13,47.59359,-54.27349
2024-02-12 18:34:01+00:00,262.0,4.57,272.0,9.51,13.13,47.59359,-54.27349
2024-02-12 18:44:01+00:00,262.0,4.16,265.0,7.6,13.13,47.59359,-54.27349
2024-02-12 18:54:01+00:00,261.0,3.9,261.0,4.56,13.13,47.59359,-54.27349
2024-02-12 19:04:01+00:00,267.0,4.94,269.0,8.01,13.13,47.59359,-54.27349
2024-02-12 19:14:00+00:00,270.0,7.59,273.0,9.26,13.6,47.59359,-54.27349
2024-02-12 19:24:00+00:00,267.0,3.03,268.0,3.33,13.6,47.59359,-54.27349
2024-02-12 19:34:00+00:00,259.0,2.6,268.0,3.21,13.6,47.59359,-54.27349
2024-02-12 19:44:00+00:00,259.0,3.94,269.0,5.14,13.6,47.59359,-54.27349
2024-02-12 19:54:00+00:00,240.0,2.68,244.0,3.15,13.6,47.59359,-54.27349
2024-02-12 20:04:00+00:00,242.0,3.4,241.0,3.72,13.6,47.59359,-54.27349
2024-02-12 20:14:01+00:00,246.0,3.65,245.0,3.98,13.29,47.59359,-54.27349
2024-02-12 20:24:01+00:00,183.0,2.78,185.0,3.03,13.29,47.59359,-54.27349
2024-02-12 20:34:01+00:00,188.0,3.43,213.0,4.45,13.29,47.59359,-54.27349
2024-02-12 20:44:01+00:00,254.0,8.76,252.0,9.64,13.29,47.59359,-54.27349
2024-02-12 20:54:01+00:00,315.0,0.01,270.0,0.0,13.29,47.59359,-54.27349
2024-02-12 21:04:01+00:00,245.0,4.2,249.0,4.48,13.29,47.59359,-54.27349
2024-02-12 21:14:00+00:00,229.0,4.65,230.0,4.66,12.57,47.59359,-54.27349
2024-02-12 21:24:00+00:00,247.0,4.05,248.0,4.09,12.57,47.59359,-54.27349
2024-02-12 21:34:00+00:00,256.0,6.82,261.0,8.76,12.57,47.59359,-54.27349
2024-02-12 21:44:00+00:00,315.0,0.01,242.0,0.0,12.57,47.59359,-54.27349
2024-02-12 21:54:00+00:00,258.0,8.71,259.0,8.92,12.57,47.59359,-54.27349
2024-02-12 22:04:00+00:00,255.0,5.27,260.0,8.5,12.57,47.59359,-54.27349
2024-02-12 22:14:00+00:00,251.0,3.83,252.0,4.18,12.33,47.59359,-54.27349
2024-02-12 22:24:00+00:00,254.0,4.69,260.0,6.56,12.33,47.59359,-54.27349
2024-02-12 22:34:00+00:00,315.0,0.01,259.0,0.0,12.33,47.59359,-54.27349
2024-02-12 22:44:00+00:00,315.0,0.01,248.0,0.0,12.33,47.59359,-54.27349
2024-02-12 22:54:00+00:00,252.0,3.9,251.0,4.0,12.33,47.59359,-54.27349
2024-02-12 23:04:00+00:00,257.0,3.81,253.0,3.99,12.33,47.59359,-54.27349
2024-02-12 23:14:00+00:00,263.0,4.53,267.0,7.16,12.25,47.59359,-54.27349
2024-02-12 23:24:00+00:00,266.0,7.93,270.0,9.13,12.25,47.59359,-54.27349
2024-02-12 23:34:00+00:00,259.0,8.66,260.0,8.74,12.25,47.59359,-54.27349
2024-02-12 23:44:00+00:00,315.0,0.01,257.0,0.0,12.25,47.59359,-54.27349
2024-02-12 23:54:00+00:00,315.0,0.01,263.0,0.0,12.25,47.59359,-54.27349
